www.pogodaiklimat.ru

Погода и климат >> Архив погоды >> Мексика >> Арриага


ПОГОДА в Арриаге

  • Прогноз погоды в Арриаге
  • Монитор погоды в Арриаге

АРХИВ ПОГОДЫ в Арриаге

Время (UTC), дата Ветер
(напр.,м/с)
 
Видим.   Явления Облачность Т
(С)
Тd
(С)
f
(%)
Тe
(С)
Тes
(С)
Комфортность P
(гПа)
Po
(гПа)
Тmin
(С)
Tmax
(С)
R
(мм)
R24
(мм)
S
(см)
00 20.03 С 2 5000 м 3/3 800 м
[Sc diur, vesp]
+29.2 +26.3 84 +44 +44 опасность
перегрева
1010.8 1005.3 +20.0 +34.9
03 20.03 С 2 1000 м 3/3 800 м
[Sc diur, vesp]
+25.9 +23.3 86 +35 +35 очень
душно
1012.7 1007.2
06 20.03 С 2 1000 м 1/1 800 м
[Sc diur, vesp]
+25.4 +23.2 88 +34 +34 очень
душно
1013.8 1008.3 +20.0 +34.9
12 20.03 С 2 1000 м 4/4 800 м
[Cu hum]
+25.9 +23.3 86 +35 +35 очень
душно
1012.5 1006.9 +21.0 +34.9
15 20.03 С 2 5000 м 4/4 800 м
[Cu hum]
+26.9 +24.3 86 +38 +43 очень
душно
1014.7 1009.2
18 20.03 С 2 5000 м 4/4 800 м
[Cu hum]
+31.6 +25.9 72 +47 +59 опасность
перегрева
1013.5 1008.0 +21.0 +32.9
21 20.03 С 2 5000 м 3/3 800 м
[Cu hum]
+32.9 +25.6 66 +48 +56 опасность
перегрева
1010.5 1004.9
00 21.03 С 3 5000 м 3/3 800 м
[Cu hum]
+29.8 +22.9 67 +40 +40 очень
душно
1010.5 1004.9 +21.0 +34.8
03 21.03 С 3 100 м 1/1 800 м
[Cu hum]
+27.4 +22.4 74 +36 +36 очень
душно
1012.6 1007.1
06 21.03 С 4 100 м 1/1 800 м
[Cu hum]
+26.8 +22.3 76 +35 +35 очень
душно
1013.6 1008.1 +21.0 +34.8
09 21.03 С 4 100 м 4/0
[]
+26.2 +22.0 78 +34 +34 очень
душно
1012.7 1007.2
12 21.03 С 3 1000 м ясно +25.8 +22.1 80 +33 +33 очень
душно
1013.1 1007.6 +23.0 +34.8
15 21.03 С 3 5000 м 3/3 800 м
[Cu hum]
+27.6 +22.9 76 +37 +42 очень
душно
1015.1 1009.5
18 21.03 С 2 5000 м 3/3 800 м
[Cu hum]
+31.2 +25.9 73 +46 +61 опасность
перегрева
1014.1 1008.5 +23.0 +32.5
21 21.03 С 4 5000 м ясно +33.0 +26.4 68 +49 +57 опасность
перегрева
1011.1 1005.6
00 22.03 С 5 5000 м ясно +30.0 +24.3 72 +42 +42 опасность
перегрева
1011.0 1005.5 +23.0 +34.2
03 22.03 С 8 1000 м 3/0
[Ac lent]
+27.6 +22.6 74 +36 +36 очень
душно
1012.8 1007.3
06 22.03 С 9 1000 м ясно +27.0 +22.1 75 +35 +35 очень
душно
1013.6 1008.1 +23.0 +34.2
09 22.03 С 8 1000 м ясно +20.7 +19 +19 1012.7 1007.2
12 22.03 С 9 2000 м ясно +20.8 +19 +19 1013.3 1007.7 +20.0 +34.2
15 22.03 С 7 4000 м ясно +27.2 +21.9 73 +35 +38 очень
душно
1015.5 1009.9
18 22.03 С 7 4000 м 1/1 800 м
[Cu hum]
+31.4 +24.7 68 +45 +50 опасность
перегрева
1014.3 1008.7 +20.0 +32.0
21 22.03 С 4 5000 м 3/3 840 м
[Cu hum]
+33.8 +29.0 76 +57 +63 опасность
перегрева
1010.2 1004.7
00 23.03 С 5 5000 м 3/3 840 м
[Sc diur, vesp]
+30.6 +27.2 82 +48 +48 опасность
перегрева
1010.6 1005.1 +20.0 +35.6
03 23.03 С 7 3000 м ясно +27.4 +22.1 73 +36 +36 очень
душно
1012.9 1007.4
06 23.03 С 6 3000 м ясно +27.2 +24.5 85 +38 +38 очень
душно
1013.5 1008.0 +35.6
09 23.03 С 7 2000 м 4/0 2000 м
[Ac lent]
+26.8 +22.3 76 +35 +35 очень
душно
1011.9 1006.4
12 23.03 С 7 3000 м ясно +26.6 +23.6 84 +36 +36 очень
душно
1012.9 1007.3 +21.0 +35.6
15 23.03 С 4 5000 м ясно +29.0 +23.5 72 +39 +46 очень
душно
1015.0 1009.4
18 23.03 С 1 5000 м 3/3 840 м
[Cu hum]
+35.4 +29.8 73 +62 +79 опасность
перегрева
1013.7 1008.2 +21.0 +36.8
21 23.03 Ю 1 3000 м 4/4 840 м
[Sc diur, vesp]
+34.8 +28.6 70 +57 +65 опасность
перегрева
1011.2 1005.8
00 24.03 штиль 0 3000 м 3/3 840 м
[Cu med, cong]
+31.2 +27.0 78 +49 +49 опасность
перегрева
1011.2 1005.8 +21.0 +40.0
03 24.03 штиль 0 1000 м 3/3 840 м
[Sc diur, vesp]
+29.0 +26.1 84 +44 +44 опасность
перегрева
1013.7 1008.3
06 24.03 штиль 0 1000 м 3/3 840 м
[Sc diur, vesp]
+28.2 +26.4 90 +43 +43 опасность
перегрева
1013.9 1008.5 +20.4 +40.0
09 24.03 С 3 1000 м 1/1 840 м
[Cu hum]
+27.0 +24.9 88 +39 +39 очень
душно
1012.5 1007.0
12 24.03 С 4 1000 м 3/3 840 м
[Cu hum]
+27.4 +24.4 84 +39 +39 очень
душно
1012.8 1007.3 +20.8 +40.0
15 24.03 С 2 3000 м 3/3 840 м
[Cu hum]
+29.0 +25.0 79 +42 +48 опасность
перегрева
1012.3 1008.9
18 24.03 штиль 0 4000 м 1/1 840 м
[Cu hum]
+36.8 +29.7 67 +62 +88 опасность
перегрева
1012.5 1007.0 +20.8 +38.6
21 24.03 штиль 0 5000 м 3/3 800 м
[Cu hum]
+36.8 +31.1 73 +68 +79 опасность
перегрева
1009.9 1004.5
00 25.03 штиль 0 5000 м 1/1 800 м
[Cu hum]
+33.8 +31.5 88 +67 +67 опасность
перегрева
1010.2 1004.8 +20.8 +40.0
03 25.03 С 2 100 м ясно +30.2 +25.7 77 +45 +45 опасность
перегрева
1012.7 1007.3
06 25.03 С 1 100 м ясно +29.0 +25.0 79 +42 +42 опасность
перегрева
1013.8 1008.4 +20.8 +40.0
09 25.03 С 2 100 м ясно +27.8 +21.9 70 +36 +36 очень
душно
1011.9 1006.4
12 25.03 С 2 1000 м ясно +27.0 +21.6 72 +34 +34 очень
душно
1011.9 1006.4 +22.0 +40.0
15 25.03 С 1 5000 м ясно +29.8 +24.3 72 +42 +52 опасность
перегрева
1013.9 1008.2
18 25.03 С 1 5000 м ясно +36.4 +29.8 69 +62 +87 опасность
перегрева
1011.7 1006.2 +22.0 +37.8
21 25.03 Ю 1 5000 м 3/3 800 м
[Cu hum]
+36.6 +30.6 71 +65 +75 опасность
перегрева
1008.9 1003.4
00 26.03 С 2 5000 м 4/4 800 м
[Cu hum]
+34.2 +29.8 78 +61 +61 опасность
перегрева
1008.9 1003.5 +22.0 +41.2
03 26.03 С 2 1000 м 3/3 800 м
[Sc diur, vesp]
+30.9 +28.0 85 +51 +51 опасность
перегрева
1011.2 1005.7
06 26.03 СЗ 2 1000 м ясно +29.6 +26.2 82 +45 +45 опасность
перегрева
1012.7 1007.2 +41.2
09 26.03 С 2 1000 м ясно +27.4 +25.9 92 +41 +41 опасность
перегрева
1011.8 1006.2
12 26.03 С 2 1000 м 4/4 800 м
[Sc diur, vesp]
+26.2 +24.6 91 +37 +37 очень
душно
1012.3 1006.8 +20.0 +41.2
15 26.03 С 1 5000 м 1/1 800 м
[Cu hum]
+28.4 +25.2 83 +41 +51 опасность
перегрева
1014.7 1009.1
18 26.03 С 2 5000 м 4/4 800 м
[Cu hum]
+34.9 +28.6 70 +57 +70 опасность
перегрева
1013.3 1007.8 +20.0 +35.9

 

Местоположение метеостанции Арриага (Мексика): широта 16.23 долгота -93.90 высота над уровнем моря 48 м.

В архиве по умолчанию представлена погода в Арриаге за последнюю неделю. Архивные данные за месяц целиком и за предыдущие месяцы, начиная с января 2011 года, Вы можете получить, выбрав интересующий диапазон дат из раскрывающегося списка и нажав кнопку "Ввод!".


*Определитесь, кто Вы:
робот инопланетянин человек

Внимание! Время в таблицах - всемирное. Для получения местного времени необходимо прибавить поправку, которая равна -6 ч.

Смотрите также архив погоды в соседних городах и на ближайших метеорологических станциях:

Погода в Тустла-Гутьерресе (Мексика) (100 км)
Погода в Салина-Крусе (Мексика) (137 км)
Погода в Сан-Кристобаль-де-лас-Касасе (Мексика) (147 км)
Погода в Комитане (Мексика) (189 км)
Погода в Коацакоалькосе (Мексика) (218 км)
Погода в Вильяэрмосе (Мексика) (220 км)
Погода в Тапачуле (Мексика) (229 км)
Погода в Уэуэтенанго (Гватемала) (280 км)
Погода в Пуэрто-Анхеле (Мексика) (283 км)
Погода в Оахаке (Мексика) (313 км)

Пояснения к столбцам:

Ветер - указаны скорость ветра в м/с - средняя за 10 мин, порывы в срок и между сроками (в фигурных скобках) и направление, откуда дует ветер: С - северный, СВ - северо-восточный, В - восточный, ЮВ - юго-восточный, Ю - южный, ЮЗ - юго-западный, З - западный, СЗ - северо-западный.
Видимость - горизонтальная дальность видимости в метрах или километрах. При видимости от 1 до 10 км при отсутствии осадков обычно наблюдается дымка, при ухудшении видимости до 1 км и менее - туман. В сухую погоду видимость может ухудшаться дымом, пылью или мглою.
Явления - указаны атмосферные явления, наблюдавшиеся в срок или в последний час перед сроком; фигурными скобками обозначены явления, наблюдавшиеся между сроками (за 1-3 часа до срока); квадратными скобками обозначены град или гололедные отложения с указанием их диаметра в мм.
Облачность - указаны через наклонную черту общая и нижняя облачность в баллах и высота нижней границы облаков в метрах; квадратными скобками обозначены формы облаков: Ci - перистые, Cs - перисто-слоистые, Cc - перисто-кучевые, Ac - высококучевые, As - высокослоистые, Sc - слоисто-кучевые, Ns - слоисто-дождевые, Cu - кучевые, Cb - кучево-дождевые. Подробнее классификацию облаков см. в Атласе облаков (PDF).
T - Температура воздуха - температура, измеренная на высоте 2 м над землей.
Td - Температура точки росы - температура, при понижении до которой содержащийся в воздухе водяной пар достигнет насыщения.
f - Относительная влажность воздуха - влажноcть воздуха, измеренная на высоте 2 м над землей.
Te - Эффективная температура - температура, которую ощущает одетый по сезону человек в тени. Характеристика душности погоды. При расчете учитывается влияние влажности воздуха и скорости ветра на теплоощущения человека.
Tes - Эффективная температура на солнце - температура, которую ощущает человек, с поправкой на солнечный нагрев. Характеристика знойности погоды. Зависит от высоты солнца над горизонтом, облачности и скорости ветра. Ночью, в пасмурную погоду, а также при ветре 12 м/с и более поправка равна нулю.
P - Атмосферное давление - приведенное к уровню моря атмосферное давление.
Po - Атмосферное давление - измеренное на уровне метеостанции атмосферное давление.
Tmin - Минимальная температура - минимум температуры воздуха на высоте 2 м над землей.
Tmax - Максимальная температура - максимум температуры воздуха на высоте 2 м над землей.
R - Количество осадков - Количество выпавших осадков за период времени, мм. При наведении курсора мыши на число - период времени, за который выпало указанное количество осадков.
R24 - Количество осадков - Количество выпавших осадков за 24 часа, мм.
S - Снежный покров - Высота снежного покрова, см. При наведении курсора мыши на число - состояние снежного покрова и степень покрытия местности в баллах.